tititudorancea.com
Station Historical Data
Daily Summary for March 30, 2018 Units:  Metric    English   Both
« Previous Day
Next Day »
Daily Weekly Monthly Yearly Custom
  High: Low: Average:
Temperature: -17.8 °C 9.5 °C 15.3 °C
Dew Point: -17.8 °C 7.6 °C 9.4 °C
Humidity: Humidity % 44 % 70 %
Wind Speed: 0 km/h 0 km/h 6.9 km/h
Wind Gust: 0 km/h - -
Wind:- - SW
Pressure: 0 hPa 1013.4 hPa -
Precipitation: 0 mm    
Historical Graphs
 
 
Ararat weather Find more about Weather in Ararat, AU


 



 


Tabular Data for March 30, 2018
Time Temperature Dew Point Pressure Wind Wind Speed Wind Gust Humidity Rainfall Rate (Hourly)
-17.8 °C -17.8 °C 0 hPa Calm     Humidity % 0 mm
00:06 12.4 °C 8.3 °C 1014.8 hPa Calm     76 % 0 mm
00:11 12.3 °C 8.4 °C 1014.8 hPa SSW 1 km/h 3.7 km/h 77 % 0 mm
00:16 12.3 °C 8.6 °C 1014.8 hPa SSW 1 km/h 3.2 km/h 78 % 0 mm
00:21 12.2 °C 8.5 °C 1014.8 hPa SSW 2.9 km/h 5.6 km/h 78 % 0 mm
00:26 12.2 °C 8.4 °C 1014.8 hPa Calm   1.9 km/h 78 % 0 mm
00:31 12.1 °C 8.5 °C 1014.8 hPa Calm     79 % 0 mm
00:36 11.8 °C 8.3 °C 1014.8 hPa Calm     79 % 0 mm
00:41 11.6 °C 8.2 °C 1014.8 hPa Calm     80 % 0 mm
00:46 11.4 °C 8.3 °C 1014.4 hPa Calm     81 % 0 mm
00:51 11.4 °C 8.2 °C 1014.8 hPa Calm     81 % 0 mm
00:56 11.2 °C 8.3 °C 1014.8 hPa Calm     82 % 0 mm
01:01 11.2 °C 8.4 °C 1014.8 hPa Calm     83 % 0 mm
01:06 11.1 °C 8.3 °C 1014.8 hPa Calm     83 % 0 mm
01:11 11 °C 8.2 °C 1014.8 hPa Calm     83 % 0 mm
01:16 10.9 °C 8.1 °C 1014.4 hPa Calm     83 % 0 mm
01:21 10.8 °C 8.2 °C 1014.4 hPa Calm     84 % 0 mm
01:26 10.7 °C 7.9 °C 1014.4 hPa Calm     83 % 0 mm
01:31 10.6 °C 7.9 °C 1014.4 hPa Calm     84 % 0 mm
01:36 10.6 °C 8.1 °C 1014.4 hPa SSW 1.1 km/h 3.2 km/h 85 % 0 mm
01:41 10.4 °C 8.1 °C 1014.4 hPa Calm     85 % 0 mm
01:46 10.4 °C 8.2 °C 1014.4 hPa Calm     86 % 0 mm
01:56 10.3 °C 8.1 °C 1014.4 hPa Calm     86 % 0 mm
02:01 10.3 °C 8.1 °C 1014.4 hPa Calm     86 % 0 mm
02:06 10.2 °C 8 °C 1014.1 hPa Calm     86 % 0 mm
02:11 10.2 °C 8.1 °C 1014.4 hPa SSW 0.8 km/h 4.8 km/h 87 % 0 mm
02:16 10.1 °C 7.8 °C 1014.4 hPa Calm     86 % 0 mm
02:21 10.1 °C 8 °C 1014.1 hPa Calm     87 % 0 mm
02:26 10 °C 7.9 °C 1014.4 hPa Calm     87 % 0 mm
02:31 9.9 °C 7.8 °C 1014.4 hPa Calm     87 % 0 mm
02:36 9.8 °C 7.9 °C 1014.4 hPa Calm   1.9 km/h 88 % 0 mm
02:41 9.8 °C 7.9 °C 1014.4 hPa Calm     88 % 0 mm
02:46 9.9 °C 8 °C 1014.4 hPa Calm     88 % 0 mm
02:51 9.8 °C 7.7 °C 1014.4 hPa Calm     87 % 0 mm
02:56 9.7 °C 7.8 °C 1014.4 hPa Calm     88 % 0 mm
03:01 9.6 °C 7.7 °C 1014.8 hPa Calm     88 % 0 mm
03:06 9.5 °C 7.6 °C 1014.8 hPa Calm   1.9 km/h 88 % 0 mm
03:11 9.5 °C 7.6 °C 1014.4 hPa Calm     88 % 0 mm
03:16 9.5 °C 7.8 °C 1014.1 hPa Calm     89 % 0 mm
03:21 9.6 °C 7.8 °C 1014.1 hPa Calm   1.9 km/h 89 % 0 mm
03:26 9.6 °C 7.9 °C 1014.1 hPa SSW 3.1 km/h 6.4 km/h 89 % 0 mm
03:31 9.7 °C 7.9 °C 1014.1 hPa SSW 3.5 km/h 3.7 km/h 89 % 0 mm
03:33 9.7 °C 7.9 °C 1014.1 hPa SSW 6 km/h 7.4 km/h 89 % 0 mm
03:38 9.7 °C 7.8 °C 1014.1 hPa SSW 0.8 km/h 3.7 km/h 88 % 0 mm
03:43 9.7 °C 7.8 °C 1014.1 hPa SSW 0.3 km/h 3.7 km/h 88 % 0 mm
03:48 9.6 °C 7.7 °C 1014.1 hPa SSW 1.3 km/h 3.7 km/h 88 % 0 mm
03:53 9.5 °C 7.8 °C 1014.1 hPa SSW 2.3 km/h 3.7 km/h 89 % 0 mm
03:58 9.6 °C 7.9 °C 1014.1 hPa Calm     89 % 0 mm
04:03 9.6 °C 7.7 °C 1014.1 hPa Calm   1.9 km/h 88 % 0 mm
04:08 9.7 °C 7.9 °C 1013.8 hPa SSW 4 km/h 7.4 km/h 89 % 0 mm
04:13 9.8 °C 8.1 °C 1013.8 hPa Calm     89 % 0 mm
04:18 9.9 °C 8.2 °C 1013.8 hPa SSW 1.8 km/h 5.6 km/h 89 % 0 mm
04:23 10.1 °C 8.4 °C 1013.8 hPa SSW 0.5 km/h 3.7 km/h 89 % 0 mm
04:28 10.1 °C 8.2 °C 1013.8 hPa Calm     88 % 0 mm
04:33 10.2 °C 8.4 °C 1013.4 hPa SSW 4 km/h 6.4 km/h 89 % 0 mm
04:38 10.2 °C 8.3 °C 1013.4 hPa SSW 3.7 km/h 5.6 km/h 88 % 0 mm
04:43 10 °C 8.1 °C 1013.4 hPa SSW 0.8 km/h 3.7 km/h 88 % 0 mm
04:48 10 °C 8.1 °C 1013.4 hPa SSW 2.7 km/h 5.6 km/h 88 % 0 mm
04:53 10 °C 8.1 °C 1013.4 hPa Calm     88 % 0 mm
04:58 10.1 °C 8.2 °C 1013.8 hPa SSW 5.3 km/h 6.4 km/h 88 % 0 mm
05:03 10.2 °C 8.4 °C 1013.8 hPa SSW 5.1 km/h 5.6 km/h 89 % 0 mm
05:08 10.1 °C 8.2 °C 1013.4 hPa Calm   1.9 km/h 88 % 0 mm
05:13 10.1 °C 8.2 °C 1013.4 hPa Calm     88 % 0 mm
05:18 9.9 °C 8 °C 1013.4 hPa Calm     88 % 0 mm
05:23 9.8 °C 7.9 °C 1013.8 hPa Calm     88 % 0 mm
05:28 9.8 °C 8.1 °C 1013.8 hPa Calm     89 % 0 mm
05:33 9.9 °C 8.4 °C 1013.4 hPa SSW 3.4 km/h 5.6 km/h 90 % 0 mm
05:38 9.9 °C 8.2 °C 1013.8 hPa Calm     89 % 0 mm
05:43 9.9 °C 8.2 °C 1013.8 hPa Calm     89 % 0 mm
05:48 9.9 °C 8.2 °C 1013.8 hPa SSW 3.9 km/h 5.6 km/h 89 % 0 mm
05:53 9.9 °C 8.2 °C 1013.8 hPa Calm     89 % 0 mm
05:58 9.9 °C 8.2 °C 1013.8 hPa Calm     89 % 0 mm
06:03 9.8 °C 8.1 °C 1013.8 hPa Calm     89 % 0 mm
06:08 9.8 °C 8.3 °C 1013.8 hPa SSW 0.8 km/h 1.9 km/h 90 % 0 mm
06:13 9.9 °C 8.3 °C 1014.1 hPa SSW 0.3 km/h 1.9 km/h 90 % 0 mm
06:18 9.9 °C 8.4 °C 1014.1 hPa Calm     90 % 0 mm
06:23 10.1 °C 8.5 °C 1014.1 hPa Calm     90 % 0 mm
06:28 10.1 °C 8.6 °C 1014.1 hPa Calm     90 % 0 mm
06:33 10.2 °C 8.8 °C 1014.1 hPa Calm     91 % 0 mm
06:38 10.3 °C 8.7 °C 1014.1 hPa SSW 0.6 km/h 3.7 km/h 90 % 0 mm
06:43 10.3 °C 8.8 °C 1014.4 hPa Calm   1.6 km/h 90 % 0 mm
06:48 10.4 °C 8.8 °C 1014.4 hPa Calm     90 % 0 mm
06:53 10.5 °C 8.9 °C 1014.4 hPa Calm     90 % 0 mm
06:58 10.5 °C 8.9 °C 1014.4 hPa Calm     90 % 0 mm
07:03 10.4 °C 8.9 °C 1014.8 hPa SSW 2.1 km/h 5.6 km/h 90 % 0 mm
07:08 10.4 °C 8.9 °C 1014.8 hPa SSW 0.2 km/h 1.9 km/h 90 % 0 mm
07:13 10.4 °C 8.8 °C 1014.8 hPa SSW 4.5 km/h 5.6 km/h 90 % 0 mm
07:18 10.3 °C 8.8 °C 1015.1 hPa SSW 0.5 km/h 1.9 km/h 90 % 0 mm
07:23 10.5 °C 8.9 °C 1015.1 hPa Calm   3.7 km/h 90 % 0 mm
07:28 10.6 °C 9.1 °C 1015.1 hPa Calm     90 % 0 mm
07:33 11.2 °C 9.9 °C 1015.1 hPa SSW 6.8 km/h 11.1 km/h 92 % 0 mm
07:38 12.2 °C 10.9 °C 1015.1 hPa SSW 8.7 km/h 14.8 km/h 92 % 0 mm
07:43 13.2 °C 11.4 °C 1015.1 hPa SSW 9.5 km/h 14.8 km/h 89 % 0 mm
07:48 13.9 °C 11.7 °C 1015.1 hPa WSW 14.2 km/h 18.5 km/h 86 % 0 mm
07:53 14.3 °C 11.7 °C 1015.1 hPa WSW 13.4 km/h 18.5 km/h 84 % 0 mm
07:58 14.4 °C 11.4 °C 1015.1 hPa WSW 14.5 km/h 18.5 km/h 82 % 0 mm
08:03 14.5 °C 11.4 °C 1015.1 hPa WSW 11.6 km/h 18.5 km/h 82 % 0 mm
08:08 14.5 °C 11.4 °C 1015.1 hPa WSW 8.9 km/h 13 km/h 82 % 0 mm
08:13 14.5 °C 11.3 °C 1015.1 hPa WSW 8.7 km/h 13 km/h 81 % 0 mm
08:18 14.4 °C 11.2 °C 1015.1 hPa WSW 7.6 km/h 11.3 km/h 81 % 0 mm
08:23 14.5 °C 11.3 °C 1015.1 hPa North 4.2 km/h 7.4 km/h 81 % 0 mm
08:28 14.7 °C 11.4 °C 1015.5 hPa WSW 2.7 km/h 7.4 km/h 81 % 0 mm
08:34 14.9 °C 11.7 °C 1015.1 hPa WSW 0.5 km/h 5.6 km/h 81 % 0 mm
08:39 15 °C 11.4 °C 1015.5 hPa WSW 3.2 km/h 3.2 km/h 79 % 0 mm
08:44 15 °C 11.4 °C 1015.5 hPa WSW 5.6 km/h 5.6 km/h 79 % 0 mm
08:49 15.1 °C 11.5 °C 1015.5 hPa WSW 9.3 km/h 11.3 km/h 79 % 0 mm
08:54 15.3 °C 11.4 °C 1015.1 hPa WSW 13.5 km/h 16.7 km/h 78 % 0 mm
08:59 15.4 °C 11.6 °C 1015.1 hPa WSW 3.2 km/h 7.4 km/h 78 % 0 mm
09:04 15.5 °C 11.5 °C 1015.5 hPa WSW 11.3 km/h 18.5 km/h 77 % 0 mm
09:09 15.6 °C 11.6 °C 1015.5 hPa WSW 8 km/h 16.7 km/h 77 % 0 mm
09:14 15.7 °C 11.4 °C 1015.5 hPa WSW 2.9 km/h 5.6 km/h 76 % 0 mm
09:19 15.8 °C 11.4 °C 1015.5 hPa SW 10.8 km/h 14.8 km/h 75 % 0 mm
09:24 15.8 °C 11.4 °C 1015.5 hPa SW 4 km/h 5.6 km/h 75 % 0 mm
09:29 15.9 °C 11.5 °C 1015.5 hPa SW 7.1 km/h 9.7 km/h 75 % 0 mm
09:34 16.2 °C 11.3 °C 1015.8 hPa WSW 8.2 km/h 20.4 km/h 73 % 0 mm
09:39 16.3 °C 11.4 °C 1015.8 hPa SW 8.7 km/h 11.1 km/h 73 % 0 mm
09:44 16.4 °C 11.3 °C 1015.8 hPa WSW 9.3 km/h 14.8 km/h 72 % 0 mm
09:49 16.5 °C 11.4 °C 1015.8 hPa WSW 10.5 km/h 16.7 km/h 72 % 0 mm
09:54 16.6 °C 11.1 °C 1015.8 hPa WSW 14.2 km/h 22.2 km/h 70 % 0 mm
09:59 16.5 °C 11.2 °C 1015.8 hPa SW 14.3 km/h 18.5 km/h 71 % 0 mm
10:04 16.3 °C 10.8 °C 1015.8 hPa SW 13.2 km/h 22.2 km/h 70 % 0 mm
10:09 16.3 °C 10.8 °C 1016.1 hPa WSW 11.6 km/h 18.5 km/h 70 % 0 mm
10:14 16.4 °C 10.7 °C 1016.1 hPa SSW 2.3 km/h 9.7 km/h 69 % 0 mm
10:19 16.6 °C 10.7 °C 1016.1 hPa WSW 8.7 km/h 14.8 km/h 68 % 0 mm
10:24 16.8 °C 10.7 °C 1016.1 hPa SW 7.9 km/h 13 km/h 67 % 0 mm
10:29 17.2 °C 11 °C 1016.1 hPa WSW 15 km/h 16.7 km/h 67 % 0 mm
10:34 17.3 °C 10.9 °C 1016.1 hPa SSW 4.5 km/h 5.6 km/h 66 % 0 mm
10:39 17.9 °C 11 °C 1016.1 hPa SW 11.6 km/h 18.5 km/h 64 % 0 mm
10:44 17.9 °C 10.8 °C 1016.1 hPa SW 12.9 km/h 18.5 km/h 63 % 0 mm
10:49 18 °C 10.8 °C 1016.5 hPa SSW 14.3 km/h 20.4 km/h 63 % 0 mm
10:54 18.1 °C 10.9 °C 1016.1 hPa WSW 12.7 km/h 20.4 km/h 63 % 0 mm
10:59 18.1 °C 10.4 °C 1016.5 hPa WSW 16.3 km/h 20.4 km/h 61 % 0 mm
11:04 18.3 °C 11.1 °C 1016.5 hPa West 16.1 km/h 22.2 km/h 63 % 0 mm
11:09 18.4 °C 11.3 °C 1016.1 hPa South 14.2 km/h 20.4 km/h 63 % 0 mm
11:14 18.6 °C 11.4 °C 1016.1 hPa SW 11.3 km/h 16.7 km/h 63 % 0 mm
11:19 18.1 °C 11.2 °C 1016.1 hPa SSW 6.9 km/h 14.8 km/h 64 % 0 mm
11:24 17.9 °C 10.7 °C 1016.1 hPa SW 11.1 km/h 18.5 km/h 63 % 0 mm
11:29 18.2 °C 11 °C 1016.1 hPa SW 11.9 km/h 16.7 km/h 63 % 0 mm
11:34 18.1 °C 10.7 °C 1016.1 hPa WSW 11.6 km/h 18.5 km/h 62 % 0 mm
11:39 18.2 °C 10.8 °C 1016.5 hPa SSW 7.7 km/h 16.7 km/h 62 % 0 mm
11:44 18 °C 10.6 °C 1016.5 hPa SSW 16.4 km/h 24.1 km/h 62 % 0 mm
11:49 17.7 °C 10.3 °C 1016.5 hPa WSW 10.5 km/h 18.5 km/h 62 % 0 mm
11:54 17.7 °C 10.3 °C 1016.5 hPa SSW 11.1 km/h 18.5 km/h 62 % 0 mm
11:59 18.2 °C 10.8 °C 1016.5 hPa WSW 12.9 km/h 20.4 km/h 62 % 0 mm
12:04 18.4 °C 10.7 °C 1016.5 hPa SW 12.4 km/h 17.7 km/h 61 % 0 mm
12:09 18 °C 10.6 °C 1016.1 hPa West 13.4 km/h 18.5 km/h 62 % 0 mm
12:14 17.9 °C 10.6 °C 1016.5 hPa WSW 13.2 km/h 18.5 km/h 62 % 0 mm
12:19 18.1 °C 10.9 °C 1016.1 hPa SW 12.4 km/h 18.5 km/h 63 % 0 mm
12:24 18.6 °C 10.9 °C 1016.1 hPa WSW 15 km/h 18.5 km/h 61 % 0 mm
12:29 18.7 °C 10.6 °C 1016.5 hPa WSW 15.6 km/h 20.4 km/h 59 % 0 mm
12:34 18.9 °C 10.2 °C 1016.1 hPa SW 16.3 km/h 25.7 km/h 57 % 0 mm
12:39 19 °C 10 °C 1016.1 hPa West 16.4 km/h 25.9 km/h 56 % 0 mm
12:44 19.4 °C 10.1 °C 1016.1 hPa WSW 13.5 km/h 18.5 km/h 55 % 0 mm
12:49 19.7 °C 10.4 °C 1016.1 hPa West 12.2 km/h 18.5 km/h 55 % 0 mm
12:54 19.9 °C 10 °C 1016.1 hPa WSW 15.4 km/h 18.5 km/h 53 % 0 mm
12:59 19.7 °C 10.1 °C 1016.1 hPa SSW 11.4 km/h 25.9 km/h 54 % 0 mm
13:04 19.7 °C 10.2 °C 1015.8 hPa WSW 12.4 km/h 18.5 km/h 54 % 0 mm
13:09 20 °C 10.1 °C 1015.8 hPa SW 16.3 km/h 22.2 km/h 53 % 0 mm
13:14 20.1 °C 10.2 °C 1015.8 hPa West 12.7 km/h 18.5 km/h 53 % 0 mm
13:19 20.2 °C 10.1 °C 1015.8 hPa WSW 18.2 km/h 22.2 km/h 52 % 0 mm
13:24 20.3 °C 10.1 °C 1015.8 hPa West 13.5 km/h 24.1 km/h 52 % 0 mm
13:29 20.2 °C 9.7 °C 1015.8 hPa SW 13.8 km/h 20.4 km/h 51 % 0 mm
13:34 20.4 °C 9.6 °C 1015.8 hPa West 12.7 km/h 18.5 km/h 50 % 0 mm
13:39 20.4 °C 9.9 °C 1015.8 hPa WSW 11.6 km/h 18.5 km/h 51 % 0 mm
13:44 20.7 °C 9.9 °C 1015.8 hPa WSW 2.9 km/h 6.4 km/h 50 % 0 mm
13:49 21.3 °C 10.1 °C 1015.8 hPa WSW 16.4 km/h 22.2 km/h 49 % 0 mm
13:54 21.3 °C 10.4 °C 1015.8 hPa West 6.8 km/h 11.1 km/h 50 % 0 mm
13:59 21.2 °C 10.1 °C 1015.8 hPa SW 16.4 km/h 25.9 km/h 49 % 0 mm
14:04 20.7 °C 9.9 °C 1015.8 hPa WSW 6.1 km/h 11.3 km/h 50 % 0 mm
14:09 20.8 °C 9.7 °C 1015.8 hPa SW 9.7 km/h 18.5 km/h 49 % 0 mm
14:14 20.7 °C 9.6 °C 1015.8 hPa SW 16.3 km/h 20.4 km/h 49 % 0 mm
14:19 21 °C 9.9 °C 1015.8 hPa SSW 16.7 km/h 20.4 km/h 49 % 0 mm
14:24 20.7 °C 9.6 °C 1015.8 hPa SW 15.1 km/h 18.5 km/h 49 % 0 mm
14:29 20.6 °C 9.4 °C 1015.8 hPa SSW 19.8 km/h 27.8 km/h 49 % 0 mm
14:34 20.3 °C 9.6 °C 1015.5 hPa WSW 14.6 km/h 18.5 km/h 50 % 0 mm
14:39 20.7 °C 9.6 °C 1015.5 hPa SW 17.1 km/h 24.1 km/h 49 % 0 mm
14:44 21.2 °C 9.8 °C 1015.5 hPa SW 13 km/h 18.5 km/h 48 % 0 mm
14:49 21.3 °C 9.6 °C 1015.5 hPa SW 6.6 km/h 14.5 km/h 47 % 0 mm
14:54 21.4 °C 10 °C 1015.5 hPa SW 11.3 km/h 20.4 km/h 48 % 0 mm
14:59 21.6 °C 9.8 °C 1015.5 hPa SW 12.1 km/h 18.5 km/h 47 % 0 mm
15:04 21.5 °C 10 °C 1015.5 hPa SW 10.8 km/h 16.7 km/h 48 % 0 mm
15:09 21.7 °C 9.8 °C 1015.5 hPa West 11.3 km/h 14.8 km/h 47 % 0 mm
15:14 21.8 °C 10 °C 1015.1 hPa West 12.1 km/h 14.8 km/h 47 % 0 mm
15:19 21.8 °C 9.4 °C 1015.1 hPa West 14.5 km/h 18.5 km/h 45 % 0 mm
15:21 21.7 °C 9.3 °C 1015.1 hPa West 15.4 km/h 15.4 km/h 45 % 0 mm
15:26 21.8 °C 9.7 °C 1015.1 hPa SW 9.5 km/h 16.7 km/h 46 % 0 mm
15:31 22 °C 9.5 °C 1015.1 hPa West 11.1 km/h 14.8 km/h 45 % 0 mm
15:36 22.1 °C 9.6 °C 1015.1 hPa SW 11.9 km/h 16.1 km/h 45 % 0 mm
15:41 22.3 °C 9.5 °C 1015.1 hPa WSW 20 km/h 22.2 km/h 44 % 0 mm
15:46 22.1 °C 9.9 °C 1015.1 hPa WSW 16.6 km/h 17.7 km/h 46 % 0 mm
15:51 21.9 °C 9.4 °C 1015.1 hPa North 15.9 km/h 25.9 km/h 45 % 0 mm
15:56 21.9 °C 9.4 °C 1015.1 hPa WNW 14 km/h 18.5 km/h 45 % 0 mm
16:01 22.1 °C 9.6 °C 1015.1 hPa West 10.5 km/h 20.4 km/h 45 % 0 mm
16:06 22.4 °C 10.2 °C 1015.1 hPa West 11.3 km/h 22.5 km/h 46 % 0 mm
16:11 21.9 °C 9.1 °C 1015.1 hPa WSW 8.9 km/h 13 km/h 44 % 0 mm
16:16 22.1 °C 10.3 °C 1015.1 hPa SW 11.3 km/h 14.5 km/h 47 % 0 mm
16:21 21.9 °C 10.1 °C 1015.1 hPa SSW 14.2 km/h 18.5 km/h 47 % 0 mm
16:26 21.7 °C 10.2 °C 1015.1 hPa South 12.7 km/h 18.5 km/h 48 % 0 mm
16:31 21.8 °C 10.6 °C 1015.1 hPa SW 14.2 km/h 18.5 km/h 49 % 0 mm
16:36 21.6 °C 10.4 °C 1015.1 hPa SW 10.5 km/h 16.7 km/h 49 % 0 mm
16:41 21 °C 10.2 °C 1015.1 hPa SW 12.7 km/h 19.3 km/h 50 % 0 mm
16:46 20.9 °C 10.1 °C 1015.1 hPa SSW 13 km/h 16.1 km/h 50 % 0 mm
16:51 20.7 °C 9.9 °C 1015.1 hPa SW 9.7 km/h 16.7 km/h 50 % 0 mm
16:56 21.2 °C 10.1 °C 1015.1 hPa SW 10.8 km/h 14.8 km/h 49 % 0 mm
17:01 21.6 °C 9.8 °C 1015.1 hPa SW 12.6 km/h 18.5 km/h 47 % 0 mm
17:06 21.8 °C 9.9 °C 1015.1 hPa West 11.4 km/h 13 km/h 47 % 0 mm
17:11 21.9 °C 9.7 °C 1015.1 hPa WSW 9.7 km/h 13 km/h 46 % 0 mm
17:16 22 °C 9.5 °C 1015.1 hPa WSW 10.3 km/h 25.9 km/h 45 % 0 mm
17:21 21.7 °C 9.6 °C 1015.1 hPa SW 12.1 km/h 18.5 km/h 46 % 0 mm
17:26 21.8 °C 9.3 °C 1015.1 hPa West 14.3 km/h 18.5 km/h 45 % 0 mm
17:31 21.9 °C 9.1 °C 1015.1 hPa WSW 9.2 km/h 16.7 km/h 44 % 0 mm
17:36 22 °C 9.5 °C 1015.1 hPa SW 9.2 km/h 18.5 km/h 45 % 0 mm
17:41 21.9 °C 9.1 °C 1015.1 hPa SSW 10.5 km/h 14.8 km/h 44 % 0 mm
17:46 21.7 °C 9.2 °C 1015.1 hPa SSW 6.1 km/h 9.3 km/h 45 % 0 mm
17:51 21.7 °C 9.3 °C 1015.1 hPa WSW 5.5 km/h 13 km/h 45 % 0 mm
17:56 21.5 °C 9.1 °C 1015.1 hPa SSW 11.9 km/h 14.8 km/h 45 % 0 mm
18:01 21.6 °C 9.1 °C 1015.1 hPa SW 8.9 km/h 11.3 km/h 45 % 0 mm
18:07 21.3 °C 9.2 °C 1015.1 hPa SW 15.9 km/h 25.9 km/h 46 % 0 mm
18:12 21.2 °C 9.1 °C 1015.5 hPa SSW 11.3 km/h 14.8 km/h 46 % 0 mm
18:17 21.1 °C 9.3 °C 1015.5 hPa SSW 8.5 km/h 9.7 km/h 47 % 0 mm
18:22 21.1 °C 9.3 °C 1015.5 hPa SSW 12.1 km/h 18.5 km/h 47 % 0 mm
18:27 21 °C 9.3 °C 1015.5 hPa South 8.2 km/h 9.3 km/h 47 % 0 mm
18:32 21 °C 9.3 °C 1015.5 hPa South 7.6 km/h 9.7 km/h 47 % 0 mm
18:37 20.9 °C 9.2 °C 1015.5 hPa SSW 10.1 km/h 11.1 km/h 47 % 0 mm
18:42 20.8 °C 9.1 °C 1015.8 hPa SSW 12.1 km/h 18.5 km/h 47 % 0 mm
18:47 20.7 °C 9.3 °C 1015.8 hPa SSW 8.7 km/h 13 km/h 48 % 0 mm
18:52 20.5 °C 9.1 °C 1015.8 hPa SW 14.6 km/h 18.5 km/h 48 % 0 mm
18:57 20.3 °C 9.3 °C 1015.8 hPa SSW 7.6 km/h 13 km/h 49 % 0 mm
19:02 20.2 °C 9.1 °C 1015.8 hPa SSW 9.8 km/h 14.8 km/h 49 % 0 mm
19:07 20 °C 8.9 °C 1015.8 hPa SSW 6 km/h 12.9 km/h 49 % 0 mm
19:12 19.8 °C 9.1 °C 1015.8 hPa SSW 10.6 km/h 14.8 km/h 50 % 0 mm
19:17 19.6 °C 9.2 °C 1016.1 hPa SSW 10.3 km/h 18.5 km/h 51 % 0 mm
19:22 19.1 °C 10.1 °C 1016.1 hPa South 10.1 km/h 16.7 km/h 56 % 0 mm
19:27 18.6 °C 10.4 °C 1016.1 hPa South 9.7 km/h 14.8 km/h 59 % 0 mm
19:32 18.2 °C 10.6 °C 1016.5 hPa South 10.1 km/h 14.8 km/h 61 % 0 mm
19:37 17.9 °C 10.6 °C 1016.5 hPa South 6.1 km/h 11.1 km/h 62 % 0 mm
19:42 17.7 °C 10.6 °C 1016.5 hPa South 7.1 km/h 13 km/h 63 % 0 mm
19:47 17.6 °C 10.4 °C 1016.5 hPa South 4 km/h 6.4 km/h 63 % 0 mm
19:52 17.4 °C 10.5 °C 1016.5 hPa South 2.9 km/h 6.4 km/h 64 % 0 mm
19:57 17.1 °C 10.5 °C 1016.8 hPa South 5.8 km/h 11.1 km/h 65 % 0 mm
20:02 16.9 °C 10.6 °C 1016.8 hPa South 12.1 km/h 16.7 km/h 66 % 0 mm
20:07 16.7 °C 10.6 °C 1016.8 hPa South 6.3 km/h 9.3 km/h 67 % 0 mm
20:12 16.6 °C 10.6 °C 1016.8 hPa South 10.6 km/h 16.7 km/h 68 % 0 mm
20:17 16.4 °C 10.4 °C 1016.8 hPa South 9.2 km/h 14.8 km/h 68 % 0 mm
20:22 16.3 °C 10.6 °C 1017.2 hPa South 8.9 km/h 13 km/h 69 % 0 mm
20:27 16.1 °C 10.4 °C 1017.2 hPa South 6.4 km/h 13 km/h 69 % 0 mm
20:32 15.9 °C 10.5 °C 1017.2 hPa South 6 km/h 13 km/h 70 % 0 mm
20:37 15.8 °C 10.3 °C 1017.5 hPa South 5.5 km/h 9.7 km/h 70 % 0 mm
20:42 15.7 °C 10.2 °C 1017.5 hPa South 3.9 km/h 7.4 km/h 70 % 0 mm
20:47 15.5 °C 10.3 °C 1017.5 hPa South 3.9 km/h 5.6 km/h 71 % 0 mm
20:52 15.3 °C 10.1 °C 1017.8 hPa South 6.9 km/h 9.3 km/h 71 % 0 mm
20:57 15.1 °C 10.1 °C 1017.8 hPa South 3.7 km/h 11.1 km/h 72 % 0 mm
21:02 14.9 °C 9.9 °C 1017.8 hPa South 4.3 km/h 11.1 km/h 72 % 0 mm
21:07 14.7 °C 9.9 °C 1018.2 hPa South 7.7 km/h 11.1 km/h 73 % 0 mm
21:12 14.5 °C 9.7 °C 1018.2 hPa South 6.4 km/h 9.3 km/h 73 % 0 mm
21:17 14.3 °C 9.8 °C 1018.2 hPa SSE 7.7 km/h 9.3 km/h 74 % 0 mm
21:22 14.2 °C 9.6 °C 1018.2 hPa SSE 7.7 km/h 9.3 km/h 74 % 0 mm
21:27 14.1 °C 9.7 °C 1018.5 hPa SSE 2.1 km/h 7.4 km/h 75 % 0 mm
21:32 13.9 °C 9.6 °C 1018.2 hPa SSE 5.3 km/h 9.3 km/h 75 % 0 mm
21:37 13.7 °C 9.6 °C 1018.5 hPa SSE 6.1 km/h 11.1 km/h 76 % 0 mm
21:42 13.6 °C 9.6 °C 1018.5 hPa SSE 3.5 km/h 9.3 km/h 77 % 0 mm
21:47 13.4 °C 9.6 °C 1018.5 hPa SSE 5.8 km/h 7.4 km/h 78 % 0 mm
21:52 13.3 °C 9.7 °C 1018.5 hPa SSE 8.9 km/h 13 km/h 79 % 0 mm
21:57 13.2 °C 9.6 °C 1018.8 hPa SSE 6.8 km/h 7.4 km/h 79 % 0 mm
22:02 13.1 °C 9.7 °C 1018.8 hPa SSE 4.8 km/h 7.4 km/h 80 % 0 mm
22:07 12.9 °C 9.6 °C 1018.8 hPa SSE 4.2 km/h 11.1 km/h 80 % 0 mm
22:12 12.8 °C 9.4 °C 1018.8 hPa SSE 2.4 km/h 9.7 km/h 80 % 0 mm
22:17 12.7 °C 9.6 °C 1018.8 hPa SSE 6.3 km/h 11.1 km/h 81 % 0 mm
22:22 12.6 °C 9.4 °C 1018.8 hPa SSE 3.1 km/h 7.4 km/h 81 % 0 mm
22:27 12.4 °C 9.3 °C 1018.8 hPa SSE 6.6 km/h 9.3 km/h 81 % 0 mm
22:32 12.3 °C 9.3 °C 1018.8 hPa SSE 6.8 km/h 9.3 km/h 82 % 0 mm
22:37 12.2 °C 9.2 °C 1018.8 hPa SSE 5.5 km/h 9.3 km/h 82 % 0 mm
22:42 12.1 °C 9.1 °C 1018.8 hPa SSE 6.3 km/h 9.3 km/h 82 % 0 mm
22:47 12 °C 9.2 °C 1018.8 hPa SSE 2.4 km/h 5.6 km/h 83 % 0 mm
22:52 11.9 °C 9.1 °C 1018.8 hPa SSE 4.5 km/h 7.4 km/h 83 % 0 mm
22:57 11.8 °C 9.1 °C 1018.8 hPa SSE 3.4 km/h 6.4 km/h 83 % 0 mm
23:02 11.8 °C 9 °C 1018.8 hPa SSE 4 km/h 8 km/h 83 % 0 mm
23:07 11.7 °C 9.1 °C 1018.8 hPa SSE 6.4 km/h 8 km/h 84 % 0 mm
23:12 11.6 °C 9 °C 1018.8 hPa SSE 3.5 km/h 5.6 km/h 84 % 0 mm
23:17 11.6 °C 8.9 °C 1018.8 hPa SSE 2.6 km/h 6.4 km/h 84 % 0 mm
23:23 11.5 °C 8.9 °C 1018.8 hPa SSE 3.5 km/h 5.6 km/h 84 % 0 mm
23:28 11.4 °C 8.8 °C 1018.8 hPa SSE 5.1 km/h 7.4 km/h 84 % 0 mm
23:33 11.4 °C 8.9 °C 1018.8 hPa SSE 1.9 km/h 3.7 km/h 85 % 0 mm
23:38 11.3 °C 8.9 °C 1018.8 hPa SSE 6 km/h 7.4 km/h 85 % 0 mm
23:43 11.3 °C 8.8 °C 1018.8 hPa SSE 4.5 km/h 7.4 km/h 85 % 0 mm
23:49 11.3 °C 8.8 °C 1018.8 hPa SSE 4.2 km/h 6.4 km/h 85 % 0 mm
23:54 11.2 °C 8.8 °C 1018.5 hPa SSE 2.6 km/h 5.6 km/h 85 % 0 mm
23:59 11.2 °C 8.8 °C 1018.5 hPa SSE 2.6 km/h 8 km/h 85 % 0 mm
Ararat Weather
Compliments of Weather Underground - 2.25 mb
Click here to send mail.


ABOUT

Live weather data from Ararat, Victoria, Australia, 3377
Data uploaded from Cumulus every 5 minutes to Weather Underground.
This site then downloads the raw data for formatting and display.
Metric and imperial data can be displayed. Graphs and historical data available.
Includes Sun and Moon times and rain image live from BOM.

Check out Ararat Weather on Facebook, Twitter and Google +

Help support ongoing costs by checking out the ads





Follow @AraratWeather